Observations for Trim Patrick St
| Time | AQI | Temp °C | Hum % | Pres Pa | CO μg/m³ | H₂S μg/m³ | NO μg/m³ | NO₂ μg/m³ | O₃ μg/m³ | SO₂ μg/m³ | PM1 μg/m³ | PM2.5 μg/m³ | PM10 μg/m³ |
|---|---|---|---|---|---|---|---|---|---|---|---|---|---|
| Thursday 30 July 2026 | |||||||||||||
| 18:44 | 3 | 23.5 | 37 | 68,839 | 0 | 13.25 | 1.55 | 11.91 | 82.19 | 7.66 | 2 | 7.21 | 7.94 |
| 18:43 | 3 | 23.5 | 37 | 68,843 | 0 | 16.19 | 1.56 | 21.31 | 79.17 | 8.45 | 2 | 8.01 | 8.81 |
| 18:42 | 3 | 23.6 | 37 | 68,849 | 0 | 13.83 | 1.56 | 16.24 | 88.76 | 8.08 | 2 | 7.25 | 7.97 |
| 18:41 | 3 | 23.7 | 37 | 68,851 | 0 | 9 | 1.55 | 11.96 | 79.2 | 7.34 | 2 | 7.23 | 7.96 |
| 18:40 | 3 | 23.7 | 37 | 68,863 | 0 | 11.17 | 1.58 | 10.25 | 89.01 | 7.91 | 2 | 7.25 | 7.97 |
| 18:39 | 3 | 23.8 | 37 | 68,873 | 0 | 14.7 | 1.57 | 11.85 | 89.82 | 8.8 | 2 | 8.04 | 8.84 |
| 18:37 | 3 | 23.9 | 36 | 68,871 | 0 | 9.04 | 1.56 | 13.72 | 89.75 | 7.72 | 2 | 7.29 | 8.02 |
| 18:36 | 3 | 23.9 | 36 | 68,888 | 0 | 10.26 | 1.57 | 8.55 | 86.35 | 8.35 | 2 | 7.31 | 8.04 |
| 18:32 | 3 | 24.2 | 36 | 68,894 | 0 | 11.58 | 1.5 | 20.95 | 83.09 | 8.84 | 2 | 8.07 | 8.88 |
| 18:31 | 3 | 24.2 | 36 | 68,882 | 0 | 8.21 | 1.51 | 8.78 | 80.27 | 8.2 | 2 | 8.12 | 8.93 |
| 18:30 | 3 | 24.2 | 36 | 68,869 | 0 | 13.86 | 1.49 | 14.15 | 89.87 | 9.02 | 3.71 | 9.67 | 10.64 |
| 18:29 | 3 | 24.3 | 36 | 68,880 | 0 | 12.58 | 1.51 | 10.76 | 93.48 | 8.8 | 3.71 | 9.69 | 10.66 |
| 18:28 | 3 | 24.3 | 35 | 68,867 | 0 | 9.45 | 1.54 | 13.42 | 97.95 | 9.09 | 2.86 | 10.53 | 11.58 |
| 18:27 | 3 | 24.4 | 35 | 68,876 | 0 | 3.42 | 1.51 | 8.61 | 83.68 | 8.14 | 4.57 | 10.52 | 11.57 |
| 18:26 | 3 | 24.4 | 35 | 68,892 | 0 | 6.93 | 1.54 | 6.8 | 70.06 | 8.21 | 2 | 8.13 | 8.94 |
| 18:25 | 3 | 24.5 | 36 | 68,910 | 0 | 17.06 | 1.5 | 29.11 | 78.88 | 9.34 | 2 | 8.12 | 8.93 |
| 18:24 | 3 | 24.6 | 36 | 68,902 | 0 | 12.76 | 1.49 | 16.64 | 83.61 | 9.4 | 2 | 7.32 | 8.05 |
| 18:23 | 3 | 24.6 | 35 | 68,920 | 0 | 7.9 | 1.48 | 10.08 | 90.65 | 8.96 | 2.86 | 8.93 | 9.82 |
| 18:22 | 3 | 24.7 | 35 | 68,914 | 0 | 7.97 | 1.5 | 8.56 | 87.05 | 9.02 | 3.71 | 10.53 | 11.59 |
| 18:21 | 3 | 24.8 | 35 | 68,908 | 0 | 11.66 | 1.46 | 13.71 | 82.12 | 8.81 | 2.86 | 8.14 | 8.96 |